Weather History for Algona, IA

Change the Weather History Date:

Tuesday, January 29, 2013

  Actual Average Record
Temperature  
Mean Temperature 30 °F -  
Max Temperature 33 °F 25 °F 37 °F (2014)
Min Temperature 26 °F 10 °F -16 °F (2004)
Degree Days  
Heating Degree Days 36    
Moisture  
Dew Point 31 °F    
Average Humidity 98    
Maximum Humidity 100    
Minimum Humidity 93    
Precipitation  
Precipitation 0.00 in - - ()
Sea Level Pressure  
Sea Level Pressure 29.61 in    
Wind  
Wind Speed 11 mph (NNW)    
Max Wind Speed 23 mph    
Max Gust Speed 32 mph    
Visibility 5 miles    
Events Fog , Snow    
Averages and records for this station are not official NWS values.
T = Trace of Precipitation, MM = Missing Value Source: NWS Daily Summary

Daily Weather History Graph

Daily Weather History Graph

Search for Another Location

Airport:

Trip Planner

Search our weather history database for the weather conditions in past years. The results will help you decide how hot, cold, wet, or windy it might be!

Date:

Astronomy

Jan. 29, 2013 Rise Set
Actual Time 7:35 AM CST 5:25 PM CST
Civil Twilight 7:04 AM CST 5:56 PM CST
Nautical Twilight 6:30 AM CST 6:30 PM CST
Astronomical Twilight 5:57 AM CST 7:04 PM CST
Moon 8:29 PM CST (1/29) 8:26 AM CST (1/29)
Length of Visible Light 10h 51m
Length of Day
9h 50m
Waning Gibbous, 93% of the Moon is Illuminated
Jan 29
Waning Gibbous
Feb 3
Last Quarter
Feb 10
New
Feb 17
First Quarter
Feb 25
Full

Hourly Weather History & Observations

Time (CST) Temp. Windchill Dew Point Humidity Pressure Visibility Wind Dir Wind Speed Gust Speed Precip Events Conditions
12:15 AM 33.8 °F 27.7 °F 33.8 °F 100% 29.56 in 0.5 mi NE 6.9 mph - N/A   Overcast
12:35 AM 33.8 °F 27.7 °F 33.8 °F 100% 29.54 in 0.2 mi ENE 6.9 mph - N/A   Overcast
12:55 AM 33.8 °F 28.6 °F 33.8 °F 100% 29.52 in 0.2 mi ESE 5.8 mph - N/A Fog Fog
1:15 AM 33.8 °F 27.7 °F 33.8 °F 100% 29.51 in 0.2 mi ESE 6.9 mph - N/A Fog Fog
1:35 AM 33.8 °F - 33.8 °F 100% 29.52 in 0.2 mi Calm Calm - N/A Fog Fog
1:55 AM 33.8 °F 29.6 °F 33.8 °F 100% 29.52 in 0.2 mi NNW 4.6 mph - N/A Fog Fog
2:15 AM 33.8 °F 29.6 °F 33.8 °F 100% 29.53 in 0.2 mi NW 4.6 mph - N/A Fog Fog
2:35 AM 33.8 °F 28.6 °F 33.8 °F 100% 29.55 in 0.8 mi WNW 5.8 mph - N/A   Overcast
2:55 AM 33.8 °F 27.7 °F 33.8 °F 100% 29.55 in 1.8 mi NW 6.9 mph - N/A   Overcast
3:15 AM 33.8 °F 29.6 °F 33.8 °F 100% 29.54 in 1.5 mi WNW 4.6 mph - N/A   Overcast
3:35 AM 33.8 °F 30.8 °F 33.8 °F 100% 29.55 in 0.8 mi WNW 3.5 mph - N/A   Overcast
3:55 AM 33.8 °F 27.7 °F 33.8 °F 100% 29.55 in 0.2 mi West 6.9 mph - N/A Fog Fog
4:15 AM 33.8 °F 26.4 °F 33.8 °F 100% 29.54 in 0.2 mi NW 9.2 mph - N/A Fog Fog
4:35 AM 33.8 °F 24.8 °F 33.8 °F 100% 29.55 in 0.8 mi NW 12.7 mph - N/A   Overcast
4:55 AM 33.8 °F 25.8 °F 33.8 °F 100% 29.55 in 1.5 mi NNW 10.4 mph - N/A   Overcast
5:15 AM 33.8 °F 26.4 °F 33.8 °F 100% 29.56 in 1.8 mi NNW 9.2 mph - N/A   Overcast
5:35 AM 33.8 °F 24.8 °F 33.8 °F 100% 29.55 in 4.0 mi NNW 12.7 mph - N/A   Overcast
5:55 AM 32.0 °F 24.2 °F 32.0 °F 100% 29.54 in 6.0 mi North 9.2 mph - N/A   Overcast
6:15 AM 32.0 °F 23.0 °F 32.0 °F 100% 29.55 in 9.0 mi North 11.5 mph - N/A   Overcast
6:35 AM 32.0 °F 23.0 °F 32.0 °F 100% 29.57 in 10.0 mi NNW 11.5 mph 17.3 mph N/A   Overcast
6:55 AM 32.0 °F 24.2 °F 32.0 °F 100% 29.56 in 10.0 mi North 9.2 mph - N/A   Overcast
7:15 AM 32.0 °F 24.8 °F 32.0 °F 100% 29.57 in 10.0 mi NNW 8.1 mph 13.8 mph N/A   Overcast
7:35 AM 32.0 °F 24.2 °F 32.0 °F 100% 29.59 in 10.0 mi NNW 9.2 mph - N/A   Overcast
7:55 AM 32.0 °F 23.0 °F 32.0 °F 100% 29.61 in 10.0 mi NNW 11.5 mph - N/A   Overcast
8:15 AM 32.0 °F 22.5 °F 32.0 °F 100% 29.62 in 10.0 mi NW 12.7 mph - N/A   Overcast
8:35 AM 32.0 °F 21.6 °F 32.0 °F 100% 29.59 in 9.0 mi NNW 15.0 mph - N/A   Overcast
8:55 AM 32.0 °F 22.5 °F 32.0 °F 100% 29.61 in 10.0 mi NNW 12.7 mph - N/A   Overcast
9:15 AM 32.0 °F 22.1 °F 32.0 °F 100% 29.62 in 10.0 mi NNW 13.8 mph - N/A   Overcast
9:35 AM 32.0 °F 22.1 °F 32.0 °F 100% 29.64 in 10.0 mi NNW 13.8 mph - N/A   Overcast
9:55 AM 32.0 °F 21.6 °F 30.2 °F 93% 29.64 in 8.0 mi NW 15.0 mph 20.7 mph N/A   Overcast
10:15 AM 32.0 °F 22.5 °F 30.2 °F 93% 29.66 in 6.0 mi NNW 12.7 mph 18.4 mph N/A   Overcast
10:35 AM 32.0 °F 23.6 °F 32.0 °F 100% 29.66 in 7.0 mi NNW 10.4 mph - N/A   Overcast
10:55 AM 32.0 °F 23.6 °F 32.0 °F 100% 29.66 in 7.0 mi NNW 10.4 mph 17.3 mph N/A   Overcast
11:15 AM 32.0 °F 23.6 °F 32.0 °F 100% 29.66 in 7.0 mi North 10.4 mph - N/A   Overcast
11:35 AM 32.0 °F 23.0 °F 32.0 °F 100% 29.65 in 7.0 mi NNW 11.5 mph - N/A   Overcast
11:55 AM 32.0 °F 23.6 °F 32.0 °F 100% 29.64 in 5.0 mi North 10.4 mph 17.3 mph N/A   Overcast
12:15 PM 32.0 °F 22.1 °F 32.0 °F 100% 29.63 in 5.0 mi North 13.8 mph - N/A   Overcast
12:35 PM 32.0 °F 21.6 °F 32.0 °F 100% 29.63 in 3.0 mi North 15.0 mph 21.9 mph N/A   Overcast
12:55 PM 32.0 °F 23.0 °F 32.0 °F 100% 29.62 in 3.0 mi North 11.5 mph 18.4 mph N/A   Overcast
1:15 PM 32.0 °F 23.0 °F 32.0 °F 100% 29.61 in 4.0 mi North 11.5 mph 19.6 mph N/A   Overcast
1:35 PM 32.0 °F 23.6 °F 32.0 °F 100% 29.62 in 4.0 mi North 10.4 mph - N/A   Overcast
1:55 PM 32.0 °F 22.1 °F 32.0 °F 100% 29.61 in 5.0 mi North 13.8 mph - N/A   Overcast
2:15 PM 32.0 °F 23.6 °F 32.0 °F 100% 29.62 in 4.0 mi North 10.4 mph - N/A   Overcast
2:35 PM 32.0 °F 21.6 °F 32.0 °F 100% 29.61 in 5.0 mi NNW 15.0 mph - N/A   Overcast
2:55 PM 32.0 °F 22.1 °F 32.0 °F 100% 29.60 in 4.0 mi North 13.8 mph 21.9 mph N/A   Overcast
3:15 PM - - - N/A% 29.61 in 4.0 mi North 16.1 mph - N/A   Overcast
3:35 PM 30.2 °F 18.1 °F 30.2 °F 100% 29.61 in 4.0 mi North 18.4 mph - N/A   Overcast
3:55 PM 30.2 °F 19.8 °F 30.2 °F 100% 29.61 in 5.0 mi North 13.8 mph 21.9 mph N/A   Overcast
4:15 PM 32.0 °F 22.1 °F 30.2 °F 93% 29.62 in 6.0 mi North 13.8 mph 20.7 mph N/A   Overcast
4:35 PM 32.0 °F 21.6 °F 30.2 °F 93% 29.63 in 9.0 mi North 15.0 mph - N/A   Overcast
4:55 PM 32.0 °F 21.2 °F 30.2 °F 93% 29.63 in 5.0 mi North 16.1 mph - N/A   Overcast
5:15 PM 32.0 °F 21.2 °F 30.2 °F 93% 29.64 in 6.0 mi North 16.1 mph 23.0 mph N/A   Overcast
5:35 PM 32.0 °F 21.2 °F 30.2 °F 93% 29.64 in 6.0 mi North 16.1 mph - N/A   Overcast
5:55 PM 32.0 °F 22.1 °F 30.2 °F 93% 29.63 in 6.0 mi North 13.8 mph 24.2 mph N/A   Overcast
6:15 PM 32.0 °F 19.2 °F 30.2 °F 93% 29.61 in 6.0 mi North 23.0 mph - N/A   Overcast
6:35 PM 30.2 °F 18.5 °F 30.2 °F 100% 29.61 in 4.0 mi North 17.3 mph 28.8 mph N/A   Overcast
6:55 PM 30.2 °F 18.5 °F 30.2 °F 100% 29.63 in 5.0 mi North 17.3 mph 25.3 mph N/A   Overcast
7:15 PM 30.2 °F 17.8 °F 28.4 °F 93% 29.65 in 4.0 mi North 19.6 mph 26.5 mph N/A   Overcast
7:35 PM 28.4 °F 16.2 °F 28.4 °F 100% 29.67 in 4.0 mi North 17.3 mph 24.2 mph N/A   Overcast
7:55 PM 28.4 °F 15.4 °F 28.4 °F 100% 29.65 in 3.0 mi North 19.6 mph 26.5 mph N/A   Overcast
8:15 PM 28.4 °F 15.8 °F 28.4 °F 100% 29.63 in 4.0 mi North 18.4 mph 26.5 mph N/A   Overcast
8:35 PM 28.4 °F 14.7 °F 26.6 °F 93% 29.64 in 4.0 mi North 21.9 mph 31.1 mph N/A   Overcast
8:55 PM 28.4 °F 15.8 °F 26.6 °F 93% 29.64 in 5.0 mi North 18.4 mph 32.2 mph N/A   Overcast
9:15 PM 28.4 °F 14.7 °F 26.6 °F 93% 29.67 in 6.0 mi NNW 21.9 mph 28.8 mph N/A Snow Light Snow
9:35 PM 28.4 °F 15.4 °F 26.6 °F 93% 29.68 in 6.0 mi North 19.6 mph 26.5 mph N/A Snow Light Snow
9:55 PM 26.6 °F 13.4 °F 26.6 °F 100% 29.68 in - North 18.4 mph 26.5 mph N/A Snow Light Snow
10:15 PM 26.6 °F 12.0 °F 26.6 °F 100% 29.66 in 6.0 mi North 23.0 mph 32.2 mph N/A Snow Light Snow
10:35 PM 26.6 °F 12.4 °F 26.6 °F 100% 29.66 in 6.0 mi North 21.9 mph 31.1 mph N/A Snow Light Snow
10:55 PM 26.6 °F 12.4 °F 24.8 °F 93% 29.66 in 6.0 mi North 21.9 mph 32.2 mph N/A Snow Light Snow
11:15 PM 26.6 °F 12.4 °F 24.8 °F 93% 29.64 in 6.0 mi North 21.9 mph 31.1 mph N/A Snow Light Snow
11:35 PM 26.6 °F 12.0 °F 24.8 °F 93% 29.62 in 7.0 mi North 23.0 mph 32.2 mph N/A Snow Light Snow
11:55 PM 26.6 °F 12.7 °F 24.8 °F 93% 29.64 in 7.0 mi North 20.7 mph 31.1 mph N/A Snow Light Snow